This is the latest recevied weather packets stored in our database for station/object KD8JAM. If no packets are shown the sender has not sent any weather packets the latest 10 day(s).
| Time | Temp. | Humidity | Pressure | Rain* | Wind** | Luminosity | Snow |
|---|---|---|---|---|---|---|---|
| 1777895954 | 12.78° C | 53% | 990.2 hPa | 0 mm | - | 14 W/m² | - |
| 1777895651 | 12.78° C | 52% | 990.2 hPa | 0 mm | - | 10 W/m² | - |
| 1777895348 | 12.78° C | 53% | 990.3 hPa | 0 mm | - | 25 W/m² | - |
| 1777895046 | 12.78° C | 52% | 990.8 hPa | 0 mm | - | 22 W/m² | - |
| 1777894743 | 12.78° C | 51% | 990.9 hPa | 0 mm | - | 23 W/m² | - |
| 1777894440 | 12.78° C | 52% | 990.8 hPa | 0 mm | - | 24 W/m² | - |
| 1777894137 | 12.78° C | 51% | 991 hPa | 0 mm | - | 17 W/m² | - |
| 1777893834 | 12.78° C | 51% | 990.8 hPa | 0 mm | - | 9 W/m² | - |
| 1777893530 | 12.78° C | 51% | 990.7 hPa | 0 mm | - | 8 W/m² | - |
| 1777893227 | 12.78° C | 52% | 991.2 hPa | 0 mm | - | 7 W/m² | - |
| 1777892923 | 12.78° C | 50% | 991.4 hPa | 0 mm | - | 4 W/m² | - |
| 1777892620 | 13.33° C | 50% | 991.2 hPa | 0 mm | - | 2 W/m² | - |
| 1777892316 | 13.33° C | 50% | 991.5 hPa | 0 mm | - | 3 W/m² | - |
| 1777892012 | 13.89° C | 49% | 991.8 hPa | 0 mm | - | 2 W/m² | - |
| 1777891710 | 13.33° C | 49% | 991.6 hPa | 0 mm | - | 0 W/m² | - |
| 1777891406 | 13.33° C | 49% | 991.8 hPa | 0 mm | - | 0 W/m² | - |
| 1777891101 | 12.78° C | 51% | 991.7 hPa | 0 mm | - | 0 W/m² | - |
| 1777890796 | 12.22° C | 52% | 991.9 hPa | 0 mm | - | 0 W/m² | - |
| 1777890493 | 12.22° C | 52% | 992 hPa | 0 mm | - | 0 W/m² | - |
| 1777890189 | 11.67° C | 53% | 991.9 hPa | 0 mm | - | 0 W/m² | - |
| 1777889885 | 11.11° C | 54% | 992.2 hPa | 0 mm | - | 0 W/m² | - |
| 1777889583 | 11.11° C | 53% | 992 hPa | 0 mm | - | 0 W/m² | - |
| 1777889280 | 11.11° C | 54% | 992.2 hPa | 0 mm | - | 0 W/m² | - |
| 1777888977 | 11.11° C | 54% | 992.4 hPa | 0 mm | - | 0 W/m² | - |
| 1777888675 | 11.11° C | 55% | 992.4 hPa | 0 mm | - | 0 W/m² | - |
* Rain latest hour (hover to see other rain measurements)
** Current wind speed in m/s (hover to see current wind gust speed)